Tracking 27107 objects as of 20-Mar-2023
HD Live streaming from Space Station
objects crossing your sky now

PSLV DEB

Track PSLV DEB now!
10-day predictions


NORAD ID: 28430
Int'l Code: 2001-049NW
Perigee: 507.3 km
Apogee: 546.6 km
Inclination: 97.7 °
Period: 95.0 minutes
Semi major axis: 6897 km
RCS: 0.011 m2 (small)
Launch date: October 22, 2001
Source: India (IND)
Launch site: SRIHARIKOTA (SRI)

Note: This is SATELLITE DEBRIS
Your satellite tracking list
Your tracking list is empty




NASA's NSSDC Master Catalog

Two Line Element Set (TLE):
1 28430U 01049NW  23078.74276205  .00020048  00000-0  10528-2 0  9996
2 28430  97.7319  87.1934 0028483 173.4810 186.6797 15.15393146 78294
Source of the keplerian elements: AFSPC